Showing default

YAOGAN-43 02F, 60950

Orbit data source: Space-Track

YAOGAN-43 02F, 60950 is a payload satellite owned by PLA GAD (CN) in LEO that was launched on Tue, 03 Sep 2024 UTC via a CHANG ZHENG 4B launch vehicle from the Xichang Space Center, China (XSC). Payload-class satellites include a variety of spacecraft equipped with specific instruments for various scientific and technological missions. These include communications satellites like Starlink; space stations such as the ISS; scientific satellites like the Hubble; Earth observation satellites from companies like Planet Labs, Umbra, and HawkEye 360; GPS; miniature CubeSats for education and research; and military/defense satellites.

Loading next visibility...
Identifier
60950, 2024-156F
Orbit
LEO
Country
Flag of CNCN / PRC
Related business
Manufacturer
SAST
Mission
Operational Defense Communications
Bus & Motor
Unknown
Mass
~300 kg wet, ~300 kg dry
Launch date (UTC)
2024-09-03 (2 years ago)
Launch vehicle
CHANG ZHENG 4B
Launch site
Xichang Space Center, China (XSC)
Object type
Payload
Rocket body
Debris
Shape & HBR
Box + 2 Pan, 2.5 m
Radar Cross Section
11.063 m², Large (>1 m²)

Expand to show TLE details & history
Last TLE update: 7 hours ago

TLE from 7 hours ago
0 YAOGAN-43 02F
1 60950U 24156F   26256.73919704  .00006688  00000-0  27919-3 0  9998
2 60950  34.9946   0.9382 0001263  34.6161 325.4636 15.22965953112956
Epoch: 2026-09-13T17:44Z
TLE epoch observation values (Epoch: 2026-09-13T17:44:26.624Z)
Latitude
0.00001°
Longitude
102.09776°
Altitude
495.092 km
Speed
7.62 km/s
True Right ascension
00h 03m 45s
True Declination
0° 00' 00"
Sunlit
Object was in full shadow at epoch
Visualization orbit readout
Latitude
Unknown
Longitude
Unknown
Altitude
Unknown
Speed
Unknown
Apparent Right ascension
Unknown
Apparent Declination
Unknown
Sunlit
N/A
Visualization observer readout
Local Sidereal Time
16:54:51
Azimuth
Unknown
Elevation
Unknown
Doppler factor
Unknown
Orbital elements
Apogee altitude
501.02 km
Perigee altitude
499.282 km
Semi-major axis
6,878.288 km
Eccentricity
0.00013
Inclination
34.9946°
RAAN
0.9382°
Arg. of periapsis
34.6161°
True anomaly
325.45539°
Mean anomaly
325.4636°
Eccentric anomaly
325.4595°
Mean motion
3.80472 °/min
Orbital period
94.62 mins
BSTAR
0.00027919
Loading maneuver chart data...
Computing Atmospheric mass density...
Loading historical data...
Loading historical data...
Loading historical data...
Loading historical data...
Loading historical data...
Loading historical data...
Loading historical data...

Documentation

Showing up to 5 results
|